User: anonymous
Location: Muenchen
(48.1800°N, 11.5800°E)
Time: 17:10:34
(UTC+02:00)
Language:

ISS - Orbit

View from above orbital plane
View from above orbital plane
View from above satellite
View from above satellite

Ground track
Ground track

The orbit data is extracted from the following two-line orbital elements,

1 25544U 98067A   14207.43062631 -.00000682  00000-0 -38058-5 0  7736
2 25544 051.6477 265.0664 0006790 291.8165 195.0174 15.50438525897419
Epoch (UTC): 26 July 2014 10:20:06
Eccentricity: 0.0006790
inclination: 51.6477°
perigee height: 411 km
apogee height: 420 km
right ascension of ascending node: 265.0664°
argument of perigee: 291.8165°
revolutions per day: 15.50438525
mean anomaly at epoch: 195.0174°
orbit number at epoch: 89741

The dashed part of the orbit path shows where the satellite is in the earth's shadow,  

DLR